AirNav   Jet Aviation Boston
 
 1436 users online  

30MA Clinton Hospital Heliport
Clinton, Massachusetts, USA

GOING TO CLINTON?


FAA INFORMATION EFFECTIVE 29 MARCH 2018

Location

FAA Identifier: 30MA
Lat/Long: 42-25-40.6200N / 071-41-34.0800W
42-25.677000N / 071-41.568000W
42.4279500 / -71.6928000
(estimated)
Elevation: 368 ft. / 112 m (estimated)
Variation: 15W (1995)
From city: 1 mile NW of CLINTON, MA
Time zone: UTC -4 (UTC -5 during Standard Time)
Zip code: 01510

Heliport Operations

Heliport use: Private use, MEDICAL USE.
Activation date: 08/1998
Control tower: no
ARTCC: BOSTON CENTER
FSS: BRIDGEPORT FLIGHT SERVICE STATION
Attendance: UNATNDD
Wind indicator: yes
Segmented circle: no
Lights: FOR PERIMETER LGTS CALL 978-368-3735.

Heliport Communications

WX ASOS at FIT (8 nm N): 135.175 (978-343-9121)
WX ASOS at ORH (13 nm SW): PHONE 508-795-7546
WX ASOS at BED (18 nm E): PHONE 781-274-9733

Nearby radio navigation aids

VOR radial/distance  VOR name  Freq  Var
GDMr128/17.6GARDNER VOR/DME110.6014W
PUTr027/29.1PUTNAM VOR/DME117.4014W
MHTr223/30.0MANCHESTER VOR/DME114.4015W
BOSr294/31.4BOSTON VOR/DME112.7016W
LWMr250/32.4LAWRENCE VOR/DME112.5015W
EENr144/34.4KEENE VORTAC109.4014W
CEFr084/39.5WESTOVER VORTAC114.0014W

 
NDB name  Hdg/Dist  Freq  Var  ID
FITCHBURG174/7.936515WFIT ..-. .. -
BEDDS273/13.833216WBE -... .
SHAKER HILL282/22.825116WSKR ... -.- .-.

Heliport Services

Runway Information

Helipad H1

Dimensions: 45 x 45 ft. / 14 x 14 m
Surface: asphalt
Runway edge lights: PERI
Latitude: 42-25.666667N
Longitude: 071-41.568000W
Traffic pattern: leftleft

Heliport Ownership and Management from official FAA records

Ownership: Privately-owned
Owner: CLINTON HOSPITAL
201 HIGHLAND STREET
CLINTON, MA 01510
Phone 978-368-3000
Manager: ROBERT KNIHTILA
201 HIGHLAND STREET
CLINTON, MA 01510
Phone 978-368-3735
CELL: 508-688-5125

Heliport Operational Statistics

Aircraft based on the field: 3
Helicopters: 3
    

Instrument Procedures

There are no published instrument procedures at 30MA.

Some nearby airports with instrument procedures:

6B6 - Minute Man Air Field (8 nm E)
KFIT - Fitchburg Municipal Airport (8 nm N)
KORH - Worcester Regional Airport (13 nm SW)
KGDM - Gardner Municipal Airport (16 nm NW)
KBED - Laurence G Hanscom Field Airport (18 nm E)
 
Loc | Ops | Rwys | IFR | FBO | Links
Com | Nav | Svcs | Stats | Notes

AirNav Hotels Sweepstakes
 
Area around 30MA (Clinton Hospital Heliport)
 
Road maps at: MapQuest Bing Google
 
Aerial photo
No photo
 
Sectional chart

 
Airport distance calculator
Flying to Clinton Hospital Heliport? Find the distance to fly.

From to 30MA

Sunrise and sunset
Times for 20-Apr-2018
 Local
(UTC-4)
 Zulu
(UTC)
Morning civil twilight05:2909:29
Sunrise05:5909:59
Sunset19:3323:33
Evening civil twilight20:0200:02

Current date and time
Zulu (UTC)  20-Apr-2018 19:06:20
Local (UTC-4)  20-Apr-2018 15:06:20
 
METAR
KFIT 
8nm N 
201852Z AUTO 33014G23KT 10SM SCT055 12/M02 A3007 RMK AO2 SLP186 T01171022
KORH 
12nm SW 
201854Z 31017G27KT 10SM FEW049 08/M03 A3005 RMK AO2 PK WND 30029/1804 SLP183 T00831033
KBED 
18nm E 
201856Z 32015G23KT 10SM BKN050 11/M03 A3004 RMK AO2 PK WND 31028/1815 SLP187 T01061033
TAF
KORH 
12nm SW 
201734Z 2018/2118 32015G24KT P6SM SCT045 FM202300 32009KT P6SM SCT045 FM210100 31008KT P6SM FEW250
KBED 
18nm E 
201734Z 2018/2118 31014G25KT P6SM BKN050 FM202300 31009KT P6SM SCT250 FM211400 33010KT P6SM SKC
NOTAMs
Click for the latest NOTAMs
NOTAMs are issued by the DoD/FAA and will open in a separate window not controlled by AirNav.

 

 
 

Would you like to see your business listed on this page?

 If your business provides an interesting product or service to pilots, flight crews, aircraft, or users of the Clinton Hospital Heliport, you should consider listing it here.  To start the listing process, click on the button below
 
Add a business
 

Other Pages about Clinton Hospital Heliport

Update a link
 
Copyright © AirNav, LLC. All rights reserved. Privacy Policy  Contact